User: anonymous   Login
Location: Santa Maria di Sala
(45.5070°N, 12.0300°E)
Time: 21:12:25
(UTC+01:00)
Language:

XW-2F - Orbit

View from above orbital plane
View from above orbital plane
View from above satellite
View from above satellite

Ground track
Ground track

The orbit data is extracted from the following two-line orbital elements,

1 40910U 15049M   24057.50586226  .00269271  00000-0  16116-2 0  9999
2 40910  97.4328  84.6495 0002083 211.4259 148.6883 15.77078648468304
Epoch (UTC): 26 February 2024 12:08:26
Eccentricity: 0.0002083
inclination: 97.4328°
perigee height: 337 km
apogee height: 340 km
right ascension of ascending node: 84.6495°
argument of perigee: 211.4259°
revolutions per day: 15.77078648
mean anomaly at epoch: 148.6883°
orbit number at epoch: 46830

The dashed part of the orbit path shows where the satellite is in the earth's shadow,  

DLR